Camarillo, CA

2:32 PM PDT on August 20, 2017 (GMT -0700)
Camarillo

Weather History for KCMA - January, 2013

Change the Weather History Date:

Wednesday, January 23, 2013

  Actual Average Record
Temperature  
Mean Temperature 65 °F 54 °F  
Max Temperature 76 °F 66 °F 84 °F (1953)
Min Temperature 53 °F 43 °F 30 °F (1966)
Degree Days  
Heating Degree Days 0 11  
Month to date heating degree days 226 253  
Since 1 July heating degree days 772 934  
Cooling Degree Days 0 0  
Month to date cooling degree days 20 0  
Year to date cooling degree days 20 0  
Growing Degree Days 14 (Base 50)    
Moisture  
Dew Point 35 °F    
Average Humidity 45    
Maximum Humidity 72    
Minimum Humidity 17    
Precipitation  
Precipitation 0.05 in 0.11 in 2.93 in (1983)
Month to date precipitation 0.06 2.98  
Year to date precipitation 0.06 2.98  
Since 1 July precipitation 2.77  
Sea Level Pressure  
Sea Level Pressure 30.07 in    
Wind  
Wind Speed 5 mph (ENE)    
Max Wind Speed 25 mph    
Max Gust Speed 30 mph    
Visibility 10 miles    
Events Rain    
T = Trace of Precipitation, MM = Missing Value Source: NWS Daily Summary

Daily Weather History Graph

Daily Weather History Graph

Search for Another Location

Airport or City:

Trip Planner

Search our weather history database for the weather conditions in past years. The results will help you decide how hot, cold, wet, or windy it might be!

Date:

Astronomy

Jan. 23, 2013 Rise Set
Actual Time 6:59 AM PST 5:17 PM PST
Civil Twilight 6:32 AM PST 5:44 PM PST
Nautical Twilight 6:01 AM PST 6:15 PM PST
Astronomical Twilight 5:32 AM PST 6:45 PM PST
Moon 2:34 PM PST (1/23) 4:12 AM PST (1/23)
Length of Visible Light 11h 12m
Length of Day
10h 18m
Waxing Gibbous, 90% of the Moon is Illuminated
Jan 23
Waxing Gibbous
Jan 26
Full
Feb 3
Last Quarter
Feb 9
New
Feb 17
First Quarter

Hourly Weather History & Observations

Time (PST) Temp. Dew Point Humidity Pressure Visibility Wind Dir Wind Speed Gust Speed Precip Events Conditions
12:55 AM 61.0 °F 19.0 °F 20% 30.07 in 10.0 mi ENE 6.9 mph - N/A   Clear
1:55 AM 57.0 °F 25.0 °F 29% 30.06 in 10.0 mi ENE 3.5 mph - N/A   Clear
2:55 AM 61.0 °F 21.0 °F 21% 30.06 in 10.0 mi ENE 9.2 mph - N/A   Clear
3:55 AM 57.0 °F 24.1 °F 28% 30.05 in 10.0 mi Calm Calm - N/A   Clear
4:55 AM 53.1 °F 30.0 °F 41% 30.04 in 10.0 mi Calm Calm - N/A   Clear
5:55 AM 55.0 °F 28.9 °F 37% 30.04 in 10.0 mi Calm Calm - N/A   Clear
6:55 AM 57.0 °F 26.1 °F 30% 30.04 in 10.0 mi NNE 4.6 mph - N/A   Clear
7:55 AM 64.0 °F 21.9 °F 20% 30.04 in 10.0 mi NE 10.4 mph - N/A   Clear
8:55 AM 61.0 °F 32.0 °F 34% 30.05 in 10.0 mi Calm Calm - N/A   Clear
9:55 AM 64.9 °F 34.0 °F 32% 30.06 in 10.0 mi West 4.6 mph - N/A   Clear
10:55 AM 72.0 °F 33.1 °F 24% 30.07 in 10.0 mi Calm Calm - N/A   Clear
11:55 AM 75.0 °F 37.9 °F 26% 30.05 in 10.0 mi SSW 5.8 mph - N/A   Clear
1:55 PM 69.1 °F 43.0 °F 39% 30.03 in 8.0 mi West 3.5 mph - N/A   Scattered Clouds
2:55 PM 71.1 °F 37.0 °F 29% 30.04 in 10.0 mi SSW 6.9 mph - N/A   Overcast
3:55 PM 68.0 °F 35.1 °F 30% 30.05 in 10.0 mi West 5.8 mph - N/A   Mostly Cloudy
4:55 PM 64.0 °F 36.0 °F 35% 30.06 in 10.0 mi NW 5.8 mph - N/A   Overcast
5:55 PM 63.0 °F 41.0 °F 45% 30.10 in 10.0 mi SSE 4.6 mph - N/A   Mostly Cloudy
6:55 PM 62.1 °F 41.0 °F 46% 30.09 in 10.0 mi SSE 4.6 mph - N/A   Overcast
7:55 PM 60.1 °F 42.1 °F 51% 30.09 in 10.0 mi Calm Calm - N/A   Overcast
8:55 PM 59.0 °F 48.0 °F 67% 30.10 in 10.0 mi East 5.8 mph - 0.00 in Rain Light Rain
9:55 PM 59.0 °F 46.9 °F 64% 30.13 in 10.0 mi East 6.9 mph - 0.00 in Rain Light Rain
10:55 PM 57.0 °F 48.0 °F 72% 30.13 in 10.0 mi ENE 8.1 mph - 0.02 in Rain Light Rain
11:55 PM 57.9 °F 46.9 °F 67% 30.12 in 8.0 mi ENE 21.9 mph 29.9 mph 0.02 in Rain Rain